Weather History for Muscatine, IA

Change the Weather History Date:

Saturday, January 12, 2013

  Actual Average Record
Temperature  
Mean Temperature 38 °F -  
Max Temperature 53 °F 28 °F 57 °F (1960)
Min Temperature 23 °F 11 °F -21 °F (1974)
Degree Days  
Heating Degree Days 27    
Moisture  
Dew Point 25 °F    
Average Humidity 68    
Maximum Humidity 82    
Minimum Humidity 56    
Precipitation  
Precipitation 0.00 in - - ()
Sea Level Pressure  
Sea Level Pressure 29.93 in    
Wind  
Wind Speed 14 mph (WNW)    
Max Wind Speed 29 mph    
Max Gust Speed 36 mph    
Visibility 9 miles    
Events Snow    
Averages and records for this station are not official NWS values.
T = Trace of Precipitation, MM = Missing Value Source: NWS Daily Summary

Daily Weather History Graph

Daily Weather History Graph

Search for Another Location

Airport:

Trip Planner

Search our weather history database for the weather conditions in past years. The results will help you decide how hot, cold, wet, or windy it might be!

Date:

Astronomy

Jan. 12, 2013 Rise Set
Actual Time 7:29 AM CST 4:57 PM CST
Civil Twilight 6:58 AM CST 5:27 PM CST
Nautical Twilight 6:24 AM CST 6:01 PM CST
Astronomical Twilight 5:51 AM CST 6:35 PM CST
Moon 7:47 AM CST (1/12) 6:27 PM CST (1/12)
Length of Visible Light 10h 29m
Length of Day
9h 27m
New Moon, 1% of the Moon is Illuminated
Jan 12
New Moon
Jan 18
First Quarter
Jan 26
Full
Feb 3
Last Quarter
Feb 10
New

Hourly Weather History & Observations

Time (CST) Temp. Windchill Dew Point Humidity Pressure Visibility Wind Dir Wind Speed Gust Speed Precip Events Conditions
12:15 AM 53.6 °F - 44.6 °F 72% 29.63 in 10.0 mi South 16.1 mph - N/A   Clear
12:35 AM 53.6 °F - 44.6 °F 72% 29.64 in 10.0 mi South 13.8 mph - N/A   Clear
12:55 AM 53.6 °F - 44.6 °F 72% 29.65 in 10.0 mi South 15.0 mph - N/A   Clear
1:15 AM 53.6 °F - 44.6 °F 72% 29.65 in 10.0 mi South 13.8 mph - N/A   Clear
1:35 AM 51.8 °F - 44.6 °F 76% 29.65 in 10.0 mi South 12.7 mph - N/A   Clear
1:55 AM 51.8 °F - 44.6 °F 76% 29.66 in 10.0 mi South 10.4 mph - N/A   Clear
2:15 AM 51.8 °F - 44.6 °F 76% 29.67 in 10.0 mi South 9.2 mph - N/A   Clear
2:35 AM 50.0 °F - 42.8 °F 76% 29.69 in 10.0 mi South 11.5 mph - N/A   Clear
2:55 AM 50.0 °F - 42.8 °F 76% 29.69 in 10.0 mi South 10.4 mph - N/A   Clear
3:15 AM 48.2 °F - 42.8 °F 82% 29.70 in 10.0 mi SSW 12.7 mph 16.1 mph N/A   Clear
3:35 AM 51.8 °F - 42.8 °F 71% 29.72 in 10.0 mi SW 12.7 mph - N/A   Clear
3:55 AM 53.6 °F - 42.8 °F 67% 29.73 in 10.0 mi WSW 11.5 mph - N/A   Clear
4:15 AM 50.0 °F - 39.2 °F 66% 29.76 in 10.0 mi WNW 28.8 mph 35.7 mph N/A   Clear
4:35 AM 44.6 °F 36.6 °F 37.4 °F 76% 29.78 in 7.0 mi West 19.6 mph 29.9 mph N/A   Clear
4:55 AM 42.8 °F 33.8 °F 35.6 °F 76% 29.80 in 10.0 mi West 21.9 mph 29.9 mph N/A   Scattered Clouds
5:15 AM 39.2 °F 29.3 °F 33.8 °F 81% 29.82 in 10.0 mi West 20.7 mph 29.9 mph N/A   Clear
5:35 AM 39.2 °F 28.7 °F 30.2 °F 70% 29.84 in 10.0 mi West 23.0 mph 28.8 mph N/A   Clear
5:55 AM 37.4 °F 26.9 °F 30.2 °F 75% 29.85 in 10.0 mi West 20.7 mph 28.8 mph N/A   Clear
6:15 AM 35.6 °F 25.5 °F 28.4 °F 75% 29.87 in 10.0 mi West 17.3 mph - N/A   Clear
6:35 AM 35.6 °F 26.2 °F 28.4 °F 75% 29.89 in 10.0 mi West 15.0 mph - N/A   Scattered Clouds
6:55 AM 35.6 °F 26.2 °F 26.6 °F 70% 29.91 in 10.0 mi West 15.0 mph 27.6 mph N/A   Scattered Clouds
7:15 AM 33.8 °F 23.9 °F 26.6 °F 75% 29.91 in 10.0 mi West 15.0 mph - N/A   Clear
7:35 AM 33.8 °F 24.3 °F 26.6 °F 75% 29.93 in 10.0 mi West 13.8 mph 18.4 mph N/A   Clear
7:55 AM 33.8 °F 24.8 °F 26.6 °F 75% 29.94 in 10.0 mi West 12.7 mph 18.4 mph N/A   Scattered Clouds
8:15 AM 33.8 °F 25.3 °F 26.6 °F 75% 29.95 in 10.0 mi West 11.5 mph - N/A   Overcast
8:35 AM 33.8 °F 24.3 °F 24.8 °F 70% 29.97 in 10.0 mi West 13.8 mph 19.6 mph N/A   Overcast
8:55 AM 33.8 °F 24.3 °F 24.8 °F 70% 29.97 in 10.0 mi West 13.8 mph - N/A   Overcast
9:15 AM 33.8 °F 24.8 °F 24.8 °F 70% 29.97 in 10.0 mi West 12.7 mph - N/A   Overcast
9:35 AM 33.8 °F 22.5 °F 24.8 °F 70% 30.00 in 10.0 mi West 19.6 mph - N/A   Overcast
9:55 AM 33.8 °F 23.9 °F 19.4 °F 56% 30.02 in 10.0 mi West 15.0 mph 18.4 mph N/A   Scattered Clouds
10:15 AM 32.0 °F 22.5 °F 19.4 °F 60% 30.00 in 10.0 mi WNW 12.7 mph - N/A   Clear
10:35 AM 33.8 °F 25.8 °F 19.4 °F 56% 30.01 in 10.0 mi West 10.4 mph - N/A   Clear
10:55 AM 32.0 °F 21.6 °F 19.4 °F 60% 30.02 in 10.0 mi WNW 15.0 mph - N/A   Clear
11:15 AM 33.8 °F 24.3 °F 19.4 °F 56% 30.02 in 10.0 mi WNW 13.8 mph - N/A   Clear
11:55 AM 32.0 °F 23.0 °F 19.4 °F 60% 30.03 in 10.0 mi West 11.5 mph - N/A   Clear
12:15 PM 33.8 °F 25.8 °F 19.4 °F 56% 30.02 in 10.0 mi West 10.4 mph - N/A   Clear
12:35 PM 33.8 °F 27.0 °F 19.4 °F 56% 30.00 in 10.0 mi WNW 8.1 mph - N/A   Clear
12:55 PM 33.8 °F 27.0 °F 19.4 °F 56% 30.01 in 10.0 mi West 8.1 mph - N/A   Clear
1:15 PM 33.8 °F 25.8 °F 19.4 °F 56% 30.00 in 10.0 mi WNW 10.4 mph - N/A   Clear
1:35 PM 32.0 °F 23.6 °F 19.4 °F 60% 30.00 in 10.0 mi WNW 10.4 mph - N/A   Scattered Clouds
1:55 PM 33.8 °F 25.8 °F 21.2 °F 60% 30.01 in 10.0 mi NW 10.4 mph - N/A   Mostly Cloudy
2:15 PM 32.0 °F 23.6 °F 19.4 °F 60% 30.00 in 10.0 mi NW 10.4 mph - N/A   Overcast
2:35 PM 32.0 °F 22.5 °F 19.4 °F 60% 30.03 in 10.0 mi WNW 12.7 mph - N/A   Overcast
2:55 PM 30.2 °F 20.2 °F 19.4 °F 64% 30.04 in 10.0 mi WNW 12.7 mph - N/A   Scattered Clouds
3:15 PM 30.2 °F 21.3 °F 17.6 °F 60% 30.05 in 10.0 mi NW 10.4 mph 13.8 mph N/A   Scattered Clouds
3:35 PM 30.2 °F 21.3 °F 17.6 °F 60% 30.04 in 10.0 mi NW 10.4 mph 17.3 mph N/A   Mostly Cloudy
3:55 PM 28.4 °F 18.0 °F 17.6 °F 64% 30.03 in 10.0 mi NW 12.7 mph 17.3 mph N/A   Mostly Cloudy
4:15 PM 28.4 °F 18.5 °F 17.6 °F 64% 30.01 in 10.0 mi NW 11.5 mph - N/A   Mostly Cloudy
4:35 PM 28.4 °F 20.4 °F 17.6 °F 64% 30.01 in 10.0 mi NNW 8.1 mph - N/A   Overcast
4:55 PM 28.4 °F 19.7 °F 17.6 °F 64% 30.01 in 10.0 mi NW 9.2 mph - N/A   Overcast
5:15 PM 28.4 °F 19.1 °F 17.6 °F 64% 30.00 in 10.0 mi NW 10.4 mph - N/A   Overcast
5:35 PM 28.4 °F 20.4 °F 17.6 °F 64% 30.01 in 10.0 mi NW 8.1 mph - N/A   Overcast
5:55 PM 28.4 °F 21.2 °F 15.8 °F 59% 30.01 in 10.0 mi NNW 6.9 mph - N/A   Overcast
6:15 PM 28.4 °F 19.7 °F 17.6 °F 64% 30.02 in 10.0 mi NNW 9.2 mph - N/A   Overcast
6:35 PM 28.4 °F 18.5 °F 17.6 °F 64% 30.05 in 10.0 mi NNW 11.5 mph - N/A   Overcast
6:55 PM 28.4 °F 19.1 °F 17.6 °F 64% 30.07 in 10.0 mi WNW 10.4 mph - N/A   Overcast
7:15 PM 26.6 °F 16.2 °F 15.8 °F 64% 30.06 in 10.0 mi NW 11.5 mph - N/A   Overcast
7:35 PM 26.6 °F 17.5 °F 17.6 °F 69% 30.06 in 10.0 mi NW 9.2 mph - N/A   Overcast
7:55 PM 26.6 °F 18.2 °F 19.4 °F 74% 30.06 in 1.5 mi NNW 8.1 mph - N/A Snow Light Snow
8:15 PM 24.8 °F 15.3 °F 19.4 °F 80% 30.04 in 2.0 mi NNW 9.2 mph - N/A Snow Light Snow
8:35 PM 24.8 °F 15.3 °F 19.4 °F 80% 30.01 in 3.0 mi North 9.2 mph - N/A Snow Light Snow
8:55 PM 24.8 °F 12.9 °F 19.4 °F 80% 30.00 in 5.0 mi NNW 13.8 mph - N/A Snow Light Snow
9:15 PM 24.8 °F 12.9 °F 17.6 °F 74% 29.99 in 3.0 mi NNW 13.8 mph - N/A Snow Light Snow
9:35 PM 24.8 °F 12.9 °F 17.6 °F 74% 29.98 in 7.0 mi NNW 13.8 mph - N/A Snow Light Snow
9:55 PM 24.8 °F 15.3 °F 15.8 °F 69% 29.99 in 10.0 mi NNW 9.2 mph - N/A   Overcast
10:15 PM 24.8 °F 13.4 °F 15.8 °F 69% 30.01 in 10.0 mi NW 12.7 mph 17.3 mph N/A   Overcast
10:35 PM 24.8 °F 13.4 °F 14.0 °F 64% 30.04 in 10.0 mi NW 12.7 mph 18.4 mph N/A Snow Light Snow
10:55 PM 24.8 °F 13.4 °F 15.8 °F 69% 30.01 in 3.0 mi NW 12.7 mph - N/A Snow Light Snow
11:15 PM 23.0 °F 11.7 °F 15.8 °F 74% 30.02 in 3.0 mi NW 11.5 mph 18.4 mph N/A Snow Light Snow
11:35 PM 23.0 °F 10.6 °F 15.8 °F 74% 29.99 in 4.0 mi NNW 13.8 mph 19.6 mph N/A Snow Light Snow
11:55 PM 23.0 °F 12.4 °F 15.8 °F 74% 30.00 in 7.0 mi NNW 10.4 mph - N/A Snow Light Snow